AU298 Weather Reports


time (UTC)temp
C
wind
direction
speed
KPH
gust
KPH
rain 1hr
cm
rain 24hr
cm
rain mn
cm
humidity
%
barometer
mb
20260503202011 14 256 9.7 3.2 0.00 0.00 0.00 34 1005.4
20260503201512 14 214 9.7 3.2 0.00 0.00 0.00 35 1005.2
20260503200512 14 293 19.3 3.2 0.00 0.00 0.00 34 1005.5
20260503200012 14 252 8.0 3.2 0.00 0.00 0.00 35 1005.7
20260503195012 13 304 6.4 1.6 0.00 0.00 0.00 36 1005.7
20260503194511 14 281 20.9 1.6 0.00 0.00 0.00 35 1005.8
20260503194011 14 290 6.4 3.2 0.00 0.00 0.00 33 1005.9
20260503193512 13 326 11.3 1.6 0.00 0.00 0.00 33 1005.9
20260503193012 14 302 11.3 1.6 0.00 0.00 0.00 32 1006.1
20260503192512 13 264 11.3 1.6 0.00 0.00 0.00 35 1005.9
20260503192013 13 251 12.9 1.6 0.00 0.00 0.00 34 1006.0
20260503191511 13 305 9.7 3.2 0.00 0.00 0.00 34 1006.1
20260503191011 13 283 4.8 3.2 0.00 0.00 0.00 33 1006.2
20260503190511 13 325 8.0 3.2 0.00 0.00 0.00 35 1006.2
20260503190011 13 286 12.9 3.2 0.00 0.00 0.00 31 1006.4
20260503185012 13 13 6.4 3.2 0.00 0.00 0.00 32 1006.5
20260503184512 13 326 9.7 3.2 0.00 0.00 0.00 37 1006.6
20260503184012 12 300 11.3 3.2 0.00 0.00 0.00 31 1006.6
20260503183512 12 340 20.9 3.2 0.00 0.00 0.00 31 1006.7
20260503183011 13 291 20.9 3.2 0.00 0.00 0.00 31 1006.7
20260503182511 12 326 9.7 3.2 0.00 0.00 0.00 29 1006.7
20260503182012 13 323 14.5 3.2 0.00 0.00 0.00 30 1006.7
20260503181512 12 281 25.7 3.2 0.00 0.00 0.00 28 1006.8
20260503181013 12 312 14.5 3.2 0.00 0.00 0.00 28 1006.9
20260503180512 12 337 16.1 3.2 0.00 0.00 0.00 29 1006.8
20260503180011 12 281 12.9 3.2 0.00 0.00 0.00 26 1006.8
20260503175512 12 276 17.7 3.2 0.00 0.00 0.00 28 1006.9
20260503174512 12 316 11.3 3.2 0.00 0.00 0.00 31 1007.0
20260503174012 12 340 4.8 3.2 0.00 0.00 0.00 30 1007.0
20260503173512 12 290 16.1 3.2 0.00 0.00 0.00 33 1007.1
20260503172512 12 322 9.7 3.2 0.00 0.00 0.00 34 1007.1
20260503172011 12 311 8.0 3.2 0.00 0.00 0.00 36 1007.2
20260503171512 12 330 19.3 3.2 0.00 0.00 0.00 35 1007.1
20260503171012 12 289 3.2 1.6 0.00 0.00 0.00 35 1007.1
20260503170512 12 305 9.7 1.6 0.00 0.00 0.00 34 1007.3
20260503151011 10 326 16.1 3.2 0.00 0.00 0.00 40 1007.4
20260503150512 11 338 8.0 1.6 0.00 0.00 0.00 45 1007.4
20260503131011 7 334 4.8 1.6 0.00 0.00 0.00 81 1007.3
20260503130511 7 329 4.8 1.6 0.00 0.00 0.00 82 1007.3
20260503110512 5 274 0.0 0.0 0.00 0.00 0.00 89 1007.2
20260503090511 6 237 0.0 0.0 0.00 0.00 0.00 87 1008.0
20260503081511 6 237 0.0 0.0 0.00 0.00 0.00 84 1008.2
20260503081011 7 237 0.0 0.0 0.00 0.00 0.00 83 1008.2
20260503080512 7 237 0.0 0.0 0.00 0.00 0.00 83 1008.2
20260503072512 7 188 0.0 0.0 0.00 0.00 0.00 82 1008.6
20260503072012 7 241 0.0 0.0 0.00 0.00 0.00 82 1008.7
20260503071511 7 243 0.0 0.0 0.00 0.00 0.00 82 1008.8
20260503071011 7 243 0.0 0.0 0.00 0.00 0.00 81 1008.7
20260503070511 8 243 0.0 0.0 0.00 0.00 0.00 81 1008.7
20260503054012 8 214 0.0 0.0 0.00 0.00 0.00 78 1009.3
20260503053511 8 208 1.6 0.0 0.00 0.00 0.00 78 1009.3
20260503053012 8 165 0.0 0.0 0.00 0.00 0.00 77 1009.3
20260503052512 8 204 1.6 0.0 0.00 0.00 0.00 77 1009.4
20260503052011 8 214 4.8 0.0 0.00 0.00 0.00 77 1009.4
20260503051511 8 199 1.6 0.0 0.00 0.00 0.00 77 1009.4
20260503051011 9 217 1.6 0.0 0.00 0.00 0.00 76 1008.5
20260503050512 9 198 0.0 0.0 0.00 0.00 0.00 76 1008.6
20260503045011 9 209 0.0 0.0 0.00 0.00 0.00 75 1008.5
20260503044511 9 202 0.0 0.0 0.00 0.00 0.00 75 1008.6
20260503044011 9 195 0.0 0.0 0.00 0.00 0.00 75 1008.8
20260503043511 9 254 0.0 0.0 0.00 0.00 0.00 74 1008.8
20260503043012 9 254 0.0 0.0 0.00 0.00 0.00 74 1008.9
20260503042511 9 254 0.0 0.0 0.00 0.00 0.00 74 1009.0
20260503042011 9 254 0.0 0.0 0.00 0.00 0.00 74 1008.8
20260503041511 9 254 0.0 0.0 0.00 0.00 0.00 74 1009.0
20260503040011 10 288 1.6 0.0 0.00 0.00 0.00 73 1009.2
20260503035011 10 293 0.0 0.0 0.00 0.00 0.00 73 1009.2
20260503034511 10 301 3.2 1.6 0.00 0.00 0.00 72 1009.2
20260503034012 10 264 3.2 1.6 0.00 0.00 0.00 72 1009.4
20260503033512 10 279 1.6 1.6 0.00 0.00 0.00 71 1009.4
20260503033011 10 237 8.0 1.6 0.00 0.00 0.00 71 1009.6
20260503032011 10 212 3.2 1.6 0.00 0.00 0.00 70 1009.5
20260503031511 10 306 8.0 1.6 0.00 0.00 0.00 70 1009.6
20260503031012 10 280 3.2 1.6 0.00 0.00 0.00 70 1009.7
20260503030511 11 262 11.3 1.6 0.00 0.00 0.00 69 1009.8
20260503030012 11 255 4.8 1.6 0.00 0.00 0.00 68 1009.8
20260503025511 11 277 3.2 1.6 0.00 0.00 0.00 68 1009.9
20260503025011 11 264 3.2 1.6 0.00 0.00 0.00 68 1010.0
20260503024011 11 284 3.2 1.6 0.00 0.00 0.00 68 1010.1
20260503022511 11 323 8.0 1.6 0.00 0.00 0.00 64 1010.0
20260503022011 11 239 4.8 3.2 0.00 0.00 0.00 63 1010.0
20260503021011 12 286 6.4 1.6 0.00 0.00 0.00 60 1009.9
20260503020511 12 297 9.7 1.6 0.00 0.00 0.00 58 1009.9
20260503020011 12 283 12.9 1.6 0.00 0.00 0.00 57 1009.8
20260503015511 12 289 6.4 1.6 0.00 0.00 0.00 57 1009.7
20260503015011 12 278 6.4 1.6 0.00 0.00 0.00 56 1009.7
20260503014512 12 268 9.7 1.6 0.00 0.00 0.00 55 1009.7
20260503014011 12 304 4.8 1.6 0.00 0.00 0.00 54 1009.6
20260503013511 13 304 8.0 1.6 0.00 0.00 0.00 53 1009.6
20260503013011 13 261 9.7 1.6 0.00 0.00 0.00 53 1009.5
20260503012511 13 297 9.7 1.6 0.00 0.00 0.00 52 1009.6
20260503012011 13 297 9.7 1.6 0.00 0.00 0.00 51 1009.4
20260503011512 13 268 14.5 1.6 0.00 0.00 0.00 50 1009.4
20260503011011 13 283 4.8 1.6 0.00 0.00 0.00 50 1009.4
20260503010011 13 311 3.2 1.6 0.00 0.00 0.00 48 1009.4
20260503005511 13 314 12.9 1.6 0.00 0.00 0.00 47 1009.2
20260503005012 13 291 4.8 1.6 0.00 0.00 0.00 45 1009.2
20260503003512 14 285 1.6 0.0 0.00 0.00 0.00 41 1009.2
20260503003011 14 274 0.0 0.0 0.00 0.00 0.00 44 1009.3
20260503002511 14 250 0.0 0.0 0.00 0.00 0.00 41 1009.3
20260503002011 14 279 0.0 0.0 0.00 0.00 0.00 41 1009.3
20260503001511 14 268 1.6 0.0 0.00 0.00 0.00 41 1009.4
20260503001011 14 239 1.6 1.6 0.00 0.00 0.00 41 1009.5
20260503000512 15 308 1.6 1.6 0.00 0.00 0.00 40 1009.5
20260503000011 15 326 1.6 1.6 0.00 0.00 0.00 39 1009.5
20260502235511 15 289 3.2 1.6 0.00 0.00 0.00 40 1009.6
20260502235011 15 301 1.6 1.6 0.00 0.00 0.00 39 1009.7
20260502234511 15 325 3.2 1.6 0.00 0.00 0.00 40 1009.8
20260502233511 15 302 1.6 1.6 0.00 0.00 0.00 38 1009.8
20260502233011 15 293 9.7 1.6 0.00 0.00 0.00 38 1009.9
20260502232511 15 297 9.7 1.6 0.00 0.00 0.00 37 1010.0
20260502231511 15 214 0.0 1.6 0.00 0.00 0.00 36 1009.9
20260502231011 15 192 1.6 1.6 0.00 0.00 0.00 36 1010.0
20260502230511 15 210 0.0 0.0 0.00 0.00 0.00 37 1010.1
20260502225511 15 141 0.0 0.0 0.00 0.00 0.00 36 1010.2
20260502225011 15 167 1.6 0.0 0.00 0.00 0.00 36 1010.2
20260502224511 15 190 4.8 0.0 0.00 0.00 0.00 35 1010.3
20260502224011 15 293 3.2 1.6 0.00 0.00 0.00 35 1010.4
20260502223512 15 264 3.2 1.6 0.00 0.00 0.00 36 1010.5
20260502223012 15 303 9.7 1.6 0.00 0.00 0.00 35 1010.5
20260502222511 15 264 3.2 1.6 0.00 0.00 0.00 35 1010.6
20260502222012 15 220 1.6 1.6 0.00 0.00 0.00 38 1010.6
20260502221512 15 295 4.8 1.6 0.00 0.00 0.00 36 1010.7
20260502221011 15 246 4.8 1.6 0.00 0.00 0.00 37 1010.8
20260502220511 15 323 8.0 1.6 0.00 0.00 0.00 36 1010.8
20260502220012 15 242 0.0 1.6 0.00 0.00 0.00 36 1010.8
20260502215011 15 263 3.2 1.6 0.00 0.00 0.00 35 1011.0
20260502214511 15 230 17.7 1.6 0.00 0.00 0.00 35 1011.1
20260502214011 15 309 4.8 1.6 0.00 0.00 0.00 36 1011.0
20260502213511 15 238 4.8 1.6 0.00 0.00 0.00 35 1011.1
20260502213011 15 160 3.2 1.6 0.00 0.00 0.00 36 1011.2
20260502212511 15 221 6.4 1.6 0.00 0.00 0.00 36 1011.2
20260502212011 15 248 4.8 1.6 0.00 0.00 0.00 35 1011.3
20260502211012 15 243 8.0 1.6 0.00 0.00 0.00 34 1011.5
20260502210511 15 288 6.4 1.6 0.00 0.00 0.00 35 1011.5
20260502205512 15 226 8.0 1.6 0.00 0.00 0.00 35 1011.6
20260502204512 15 262 9.7 1.6 0.00 0.00 0.00 35 1011.8
20260502204011 15 221 14.5 1.6 0.00 0.00 0.00 34 1011.9
20260502203511 15 309 4.8 1.6 0.00 0.00 0.00 36 1011.9
20260502203011 14 319 4.8 1.6 0.00 0.00 0.00 35 1012.0